FW2834 Weather Reports


time (UTC)temp
F
wind
direction
speed
knots
gust
knots
rain 1hr
in
rain 24hr
in
rain mn
in
humidity
%
barometer
mb
20260506082039 47 324 0.9 7.0 0.02 0.56 0.09 82 1006.7
20260506081538 48 296 0.0 7.0 0.02 0.56 0.09 82 1006.6
20260506081037 48 321 0.0 0.0 0.02 0.56 0.09 82 1006.8
20260506080537 48 321 0.0 0.0 0.02 0.56 0.09 82 1006.8
20260506073041 48 347 0.9 1.7 0.01 0.54 0.07 81 1006.4
20260506072534 48 341 0.0 2.6 0.02 0.54 0.07 81 1006.6
20260506072034 48 340 0.9 3.5 0.02 0.54 0.07 81 1006.8
20260506071534 49 314 0.9 3.5 0.02 0.54 0.07 81 1006.7
20260506071031 49 304 1.7 2.6 0.02 0.54 0.07 81 1006.5
20260506070528 49 304 0.9 2.6 0.02 0.54 0.07 81 1006.3
20260506062021 51 331 0.0 2.6 0.02 0.52 0.05 80 1005.6
20260506061528 51 340 0.0 3.5 0.03 0.52 0.05 80 1005.6
20260506061019 51 11 0.0 3.5 0.03 0.52 0.05 81 1005.8
20260506060519 52 302 0.0 0.0 0.03 0.52 0.05 81 1005.9
20260506051005 59 128 0.0 0.0 0.02 0.49 0.02 85 1005.2
20260506050506 59 128 0.0 0.0 0.02 0.49 0.02 85 1005.1
20260506045003 59 128 0.0 0.0 0.02 0.48 0.01 85 1005.0
20260506044504 59 128 0.0 0.0 0.02 0.48 0.01 84 1005.1
20260506044003 59 128 0.0 0.9 0.02 0.48 0.01 84 1005.1
20260506043502 59 128 0.0 0.9 0.02 0.48 0.01 84 1005.2
20260506043002 59 128 0.0 0.0 0.02 0.48 0.01 84 1005.2
20260506042505 59 128 0.0 0.0 0.02 0.48 0.01 84 1005.4
20260506042003 59 128 0.0 0.0 0.01 0.47 0.00 84 1005.2
20260506041602 59 128 0.0 0.0 0.02 0.47 0.00 84 1005.2
20260506041059 59 128 0.0 0.0 0.02 0.47 0.00 84 1005.0
20260506040558 59 128 0.0 0.9 0.02 0.47 0.00 84 1004.9
20260506040104 59 128 0.0 0.9 0.02 0.47 0.47 84 1004.8
20260506035557 59 128 0.0 0.0 0.02 0.47 0.47 84 1004.9
20260506035057 59 128 0.0 0.9 0.03 0.47 0.47 83 1005.0
20260506034611 59 128 0.0 0.9 0.02 0.46 0.46 83 1005.0
20260506034057 59 128 0.0 0.9 0.02 0.46 0.46 83 1005.1
20260506033557 59 128 0.0 1.7 0.02 0.46 0.46 82 1005.2
20260506033056 59 128 0.0 1.7 0.02 0.46 0.46 82 1005.2
20260506032556 59 128 0.0 0.9 0.03 0.46 0.46 82 1005.3
20260506032058 59 128 0.0 0.9 0.03 0.46 0.46 81 1005.5
20260506031604 59 128 0.0 0.9 0.02 0.45 0.45 81 1005.4
20260506031057 59 128 0.0 0.9 0.03 0.45 0.45 81 1005.4
20260506030555 59 128 0.0 0.0 0.03 0.45 0.45 81 1005.8
20260506030056 59 128 0.0 0.0 0.03 0.45 0.45 81 1005.7
20260506025554 59 128 0.0 0.0 0.04 0.45 0.45 80 1005.6
20260506025054 59 128 0.0 0.9 0.03 0.44 0.44 80 1005.6
20260506024555 59 128 0.0 0.9 0.04 0.44 0.44 80 1006.1
20260506024054 59 128 0.0 0.0 0.04 0.44 0.44 80 1006.3
20260506023554 59 128 0.0 0.0 0.04 0.44 0.44 80 1006.4
20260506023054 59 128 0.0 0.0 0.04 0.43 0.43 80 1006.3
20260506022553 59 128 0.0 0.0 0.05 0.43 0.43 79 1006.3
20260506022053 59 128 0.0 0.0 0.05 0.43 0.43 79 1006.3
20260506021557 59 128 0.0 0.9 0.06 0.43 0.43 79 1006.2
20260506021053 59 128 0.0 0.9 0.06 0.42 0.42 79 1006.1
20260506020553 59 128 0.0 0.9 0.07 0.42 0.42 79 1006.3
20260506020055 59 128 0.0 0.0 0.08 0.42 0.42 79 1006.4
20260506015552 59 128 0.0 0.0 0.08 0.41 0.41 79 1006.3
20260506015055 59 128 0.0 0.0 0.08 0.41 0.41 79 1006.3
20260506014552 59 128 0.0 0.0 0.07 0.40 0.40 79 1006.2
20260506014053 60 128 0.0 0.0 0.07 0.40 0.40 79 1006.2
20260506013552 60 128 0.0 0.0 0.07 0.40 0.40 79 1006.2
20260506013051 60 128 0.0 0.0 0.06 0.39 0.39 79 1006.1
20260506012551 60 128 0.0 0.0 0.05 0.38 0.38 79 1005.9
20260506012052 60 128 0.0 0.9 0.05 0.38 0.38 79 1006.0
20260506011551 60 128 0.0 0.9 0.04 0.37 0.37 79 1005.9
20260506011053 60 128 0.0 0.9 0.03 0.36 0.36 79 1005.9
20260506010550 60 128 0.0 0.9 0.02 0.35 0.35 78 1006.0
20260506010056 60 128 0.0 0.0 0.01 0.34 0.34 78 1006.1
20260506005550 60 128 0.0 0.0 0.01 0.33 0.33 78 1005.7
20260506005050 60 128 0.0 0.9 0.01 0.33 0.33 78 1005.6
20260506004551 60 128 0.0 0.9 0.01 0.33 0.33 78 1005.4
20260506004049 60 128 0.0 0.9 0.02 0.33 0.33 78 1005.5
20260506003549 60 128 0.0 0.9 0.02 0.33 0.33 78 1005.4
20260506003049 60 128 0.0 1.7 0.02 0.33 0.33 78 1005.5
20260506002551 60 128 0.0 1.7 0.02 0.33 0.33 78 1005.5
20260506002049 60 128 0.0 0.0 0.02 0.33 0.33 78 1005.5
20260506001549 61 128 0.0 0.9 0.02 0.33 0.33 78 1005.3
20260506001049 61 128 0.0 0.9 0.02 0.33 0.33 78 1005.2
20260506000549 61 128 0.0 0.9 0.02 0.33 0.33 78 1005.0
20260506000048 61 128 0.0 0.9 0.02 0.33 0.33 78 1005.1
20260505235549 61 128 0.0 1.7 0.01 0.32 0.32 78 1005.3
20260505235048 61 128 0.0 1.7 0.01 0.32 0.32 78 1005.4
20260505234556 61 129 0.0 1.7 0.01 0.32 0.32 78 1005.2
20260505234047 61 129 0.0 1.7 0.00 0.31 0.31 78 1005.5
20260505233547 61 129 0.0 0.9 0.00 0.31 0.31 78 1005.5
20260505233059 61 129 0.0 0.0 0.00 0.31 0.31 78 1005.5
20260505232547 61 129 0.0 0.9 0.00 0.31 0.31 78 1005.4
20260505232049 61 129 0.0 2.6 0.00 0.31 0.31 78 1005.4
20260505231552 61 129 0.0 2.6 0.00 0.31 0.31 78 1005.6
20260505231046 61 128 0.0 0.9 0.00 0.31 0.31 77 1005.6
20260505230548 61 128 0.0 0.9 0.00 0.31 0.31 77 1005.7
20260505230046 61 128 0.0 2.6 0.00 0.31 0.31 77 1005.7
20260505225547 61 129 0.0 4.3 0.00 0.31 0.31 77 1005.8
20260505225046 61 131 0.0 4.3 0.00 0.31 0.31 77 1005.8
20260505224546 61 159 0.9 5.2 0.01 0.31 0.31 76 1006.0
20260505224048 61 138 0.9 5.2 0.01 0.31 0.31 76 1006.0
20260505223545 61 125 0.0 1.7 0.01 0.31 0.31 76 1006.2
20260505223052 61 125 0.0 2.6 0.01 0.31 0.31 76 1006.2
20260505222547 61 126 0.0 3.5 0.02 0.31 0.31 76 1006.2
20260505222044 61 126 0.0 3.5 0.02 0.31 0.31 75 1006.2
20260505221546 61 151 0.0 0.9 0.03 0.31 0.31 75 1006.3
20260505221044 62 151 0.0 4.3 0.04 0.31 0.31 75 1006.4
20260505220548 62 151 0.0 4.3 0.05 0.31 0.31 74 1006.5
20260505220043 62 340 0.0 0.9 0.06 0.31 0.31 74 1006.6
20260505215543 62 340 0.0 0.9 0.07 0.31 0.31 74 1006.6
20260505215044 62 340 0.0 0.9 0.07 0.31 0.31 74 1006.6
20260505214549 62 340 0.0 0.9 0.07 0.30 0.30 74 1006.6
20260505214043 62 328 0.0 0.9 0.08 0.30 0.30 73 1006.6
20260505213543 62 326 0.0 0.9 0.09 0.30 0.30 73 1006.6
20260505213043 62 326 0.0 1.7 0.09 0.30 0.30 73 1006.6
20260505212543 62 316 0.0 1.7 0.09 0.28 0.28 72 1006.6
20260505212042 62 346 0.0 1.7 0.10 0.28 0.28 72 1006.6
20260505211542 62 347 0.0 1.7 0.09 0.28 0.28 72 1006.6
20260505211045 62 48 0.0 2.6 0.10 0.27 0.27 72 1006.6
20260505210541 62 49 0.0 2.6 0.09 0.26 0.26 72 1006.6
20260505210042 63 65 0.0 1.7 0.10 0.25 0.25 71 1006.6
20260505205542 63 309 0.0 0.9 0.12 0.24 0.24 71 1006.6
20260505205041 63 309 0.0 1.7 0.15 0.23 0.23 71 1006.7
20260505204545 63 309 0.0 2.6 0.17 0.22 0.22 71 1006.7
20260505204041 64 323 0.0 2.6 0.17 0.22 0.22 70 1006.8
20260505203543 64 307 0.0 2.6 0.16 0.21 0.21 70 1006.8
20260505203041 64 248 0.0 2.6 0.15 0.20 0.20 70 1006.8
20260505202544 65 215 0.0 1.7 0.14 0.19 0.19 69 1006.9
20260505202042 65 213 0.0 0.9 0.14 0.19 0.19 68 1006.8
20260505201540 66 227 0.0 2.6 0.13 0.18 0.18 68 1006.9
20260505201040 66 226 0.0 2.6 0.12 0.17 0.17 67 1006.7
20260505200540 67 234 0.0 1.7 0.11 0.16 0.16 67 1006.7
20260505200046 67 238 0.0 1.7 0.10 0.15 0.15 66 1006.8
20260505195539 68 238 0.0 4.3 0.06 0.11 0.11 65 1006.8
20260505195038 68 229 1.7 6.1 0.02 0.07 0.07 64 1007.0
20260505194539 68 254 1.7 6.1 0.00 0.05 0.05 62 1006.9
20260505194038 68 286 0.0 3.5 0.00 0.05 0.05 62 1006.6
20260505193538 68 205 0.0 3.5 0.00 0.05 0.05 62 1006.6
20260505193037 68 191 0.0 1.7 0.00 0.05 0.05 62 1006.5
20260505192538 68 117 0.0 3.5 0.00 0.05 0.05 62 1006.6
20260505192036 68 46 0.0 3.5 0.00 0.05 0.05 61 1006.5
20260505191540 68 190 0.0 2.6 0.00 0.05 0.05 62 1006.6
20260505191037 68 190 0.9 2.6 0.00 0.05 0.05 62 1006.6
20260505190534 68 53 0.0 2.6 0.00 0.05 0.05 61 1006.6
20260505190038 68 59 0.0 5.2 0.00 0.05 0.05 61 1006.7
20260505185535 68 298 0.0 5.2 0.00 0.05 0.05 62 1006.6
20260505185034 68 328 0.0 7.0 0.00 0.05 0.05 62 1006.6
20260505184534 68 137 0.9 6.1 0.00 0.05 0.05 62 1006.8
20260505184034 68 91 0.0 3.5 0.00 0.05 0.05 62 1006.8
20260505183533 68 174 0.0 4.3 0.00 0.05 0.05 61 1006.9
20260505183038 68 182 0.0 4.3 0.00 0.05 0.05 61 1006.9
20260505182533 68 306 0.9 3.5 0.00 0.05 0.05 61 1007.0
20260505182032 68 298 0.9 3.5 0.00 0.05 0.05 60 1007.0
20260505181532 68 49 0.0 3.5 0.00 0.05 0.05 61 1007.2
20260505181031 68 135 0.0 3.5 0.00 0.05 0.05 60 1007.4
20260505180531 68 123 0.9 2.6 0.00 0.05 0.05 60 1007.2
20260505180034 67 55 0.9 7.0 0.00 0.05 0.05 61 1007.3
20260505175531 67 153 0.9 7.0 0.00 0.05 0.05 61 1007.2
20260505175031 67 140 0.0 3.5 0.00 0.05 0.05 61 1007.3
20260505174538 67 240 0.0 3.5 0.00 0.05 0.05 62 1007.5
20260505174029 67 53 0.0 3.5 0.00 0.05 0.05 62 1007.5
20260505173527 67 90 0.0 2.6 0.00 0.05 0.05 62 1007.5
20260505173028 67 90 0.9 2.6 0.00 0.05 0.05 61 1007.6
20260505172527 67 86 0.9 2.6 0.00 0.05 0.05 61 1007.6
20260505172028 67 305 0.0 5.2 0.00 0.05 0.05 61 1007.6
20260505171527 66 125 0.9 5.2 0.00 0.05 0.05 60 1007.6
20260505171029 66 130 0.9 3.5 0.00 0.05 0.05 60 1007.6
20260505170526 66 162 0.0 4.3 0.00 0.05 0.05 60 1007.7
20260505170026 66 134 0.9 4.3 0.00 0.05 0.05 61 1007.7
20260505165526 66 30 0.0 1.7 0.00 0.05 0.05 61 1007.7
20260505165126 66 30 0.0 2.6 0.00 0.05 0.05 60 1007.6
20260505164526 66 349 0.0 2.6 0.00 0.05 0.05 61 1007.7
20260505164028 67 297 0.0 2.6 0.00 0.05 0.05 61 1007.6
20260505163528 67 350 0.0 0.0 0.00 0.05 0.05 61 1007.6
20260505163026 67 288 0.0 0.0 0.00 0.05 0.05 61 1007.7
20260505162525 67 288 0.0 0.9 0.00 0.05 0.05 62 1007.8
20260505162025 67 288 0.0 2.6 0.00 0.05 0.05 62 1007.7
20260505161525 67 288 0.0 2.6 0.00 0.05 0.05 62 1007.8
20260505161029 67 244 0.0 2.6 0.00 0.05 0.05 62 1007.7
20260505160525 67 313 0.0 2.6 0.00 0.05 0.05 62 1007.7
20260505153021 66 83 0.0 3.5 0.00 0.05 0.05 66 1007.3
20260505152521 65 84 0.0 3.5 0.00 0.05 0.05 66 1007.3
20260505152022 65 148 0.9 6.1 0.00 0.05 0.05 66 1007.3
20260505151520 64 346 1.7 6.1 0.00 0.05 0.05 67 1007.3
20260505151020 64 204 0.0 3.5 0.00 0.05 0.05 69 1007.5
20260505150518 64 135 0.0 3.5 0.00 0.05 0.05 69 1007.5
20260505140512 60 109 0.0 3.5 0.00 0.05 0.05 77 1006.9
20260505125006 59 64 0.0 1.7 0.00 0.05 0.05 78 1007.3
20260505124505 59 51 0.0 0.9 0.00 0.05 0.05 77 1007.5
20260505124005 59 78 0.0 0.9 0.00 0.05 0.05 77 1007.6
20260505123505 59 78 0.0 2.6 0.00 0.05 0.05 77 1007.7
20260505123002 58 78 0.0 2.6 0.01 0.05 0.05 76 1007.6
20260505122502 58 152 0.0 0.9 0.01 0.05 0.05 76 1007.7
20260505122002 58 153 0.0 0.9 0.01 0.05 0.05 76 1007.8
20260505121501 58 153 0.0 1.7 0.01 0.05 0.05 75 1007.8
20260505121103 58 153 0.0 1.7 0.01 0.05 0.05 75 1007.7
20260505120559 58 155 0.0 1.7 0.01 0.05 0.05 74 1007.9
20260505120116 58 155 0.0 1.7 0.02 0.05 0.05 74 1008.0
20260505115557 58 96 0.0 1.7 0.02 0.05 0.05 74 1007.9
20260505115100 58 95 0.0 0.9 0.02 0.05 0.05 73 1007.9
20260505114554 58 95 0.0 0.9 0.02 0.05 0.05 73 1007.9
20260505114054 58 95 0.0 0.9 0.02 0.05 0.05 73 1007.9
20260505113553 58 95 0.0 0.9 0.02 0.05 0.05 73 1007.7
20260505113059 58 95 0.0 1.7 0.02 0.04 0.04 73 1007.1
20260505112557 58 96 0.0 1.7 0.03 0.04 0.04 73 1006.9
20260505112051 58 95 0.0 1.7 0.04 0.04 0.04 72 1007.0
20260505111549 58 93 0.0 1.7 0.04 0.04 0.04 72 1007.0
20260505111048 59 15 0.0 0.9 0.04 0.04 0.04 71 1007.2
20260505110548 59 15 0.0 0.0 0.04 0.04 0.04 71 1007.2
20260505102040 61 14 0.0 1.7 0.00 0.00 0.00 66 1007.7
20260505101539 61 14 0.0 3.5 0.00 0.00 0.00 66 1007.8
20260505101039 61 15 0.0 3.5 0.00 0.00 0.00 65 1007.9
20260505100539 61 319 0.9 4.3 0.00 0.00 0.00 64 1008.0
20260505100038 61 319 0.9 4.3 0.00 0.00 0.00 63 1008.0
20260505095537 61 316 0.9 4.3 0.00 0.00 0.00 62 1007.7
20260505095036 61 311 0.9 2.6 0.00 0.00 0.00 61 1007.6
20260505094537 61 168 0.0 0.9 0.00 0.00 0.00 60 1007.5
20260505094034 61 168 0.0 0.0 0.00 0.00 0.00 60 1007.2
20260505093533 61 168 0.0 0.0 0.00 0.00 0.00 60 1007.1
20260505093033 61 168 0.0 0.0 0.00 0.00 0.00 60 1007.1
20260505092534 61 168 0.0 0.0 0.00 0.00 0.00 60 1006.9
20260505092032 61 168 0.0 0.0 0.00 0.00 0.00 60 1006.8
20260505091531 61 168 0.0 2.6 0.00 0.00 0.00 60 1006.8
20260505091033 61 168 0.0 2.6 0.00 0.00 0.00 60 1006.6
20260505090630 61 119 0.0 0.9 0.00 0.00 0.00 60 1006.6
20260505090035 61 119 0.0 1.7 0.00 0.00 0.00 60 1006.5
20260505085531 61 119 0.0 1.7 0.00 0.00 0.00 60 1006.4
20260505085028 61 119 0.0 2.6 0.00 0.00 0.00 59 1006.4
20260505084528 61 119 0.0 1.7 0.00 0.00 0.00 60 1006.3
20260505084027 61 119 0.0 2.6 0.00 0.00 0.00 60 1006.3
20260505083526 61 119 0.0 2.6 0.00 0.00 0.00 59 1006.3
20260505083025 61 119 0.0 1.7 0.00 0.00 0.00 59 1006.2
20260505082525 61 119 0.0 1.7 0.00 0.00 0.00 59 1006.1